Погода в Лугано

Швейцария     46°00′30″N   8°56′48″E
темп.,
°C
ветер,
м/с
пор.,
м/с
влажн.,
%
обл.,
%
осадки,
мм/ч
давл.,
гПа
погр.,
м
25 июля, вс
вс2523:00+16ссв33947 0.8 101351
02:00+15ссв239697 2.3 101345
05:00+14св2296100 1.8 101237
08:00+16ссв1294100 2.4 101276
11:00+20ююз118587 2.2 1012399
14:00+21ю12793 5.7 1011679
17:00+21ю017462 4.1 1011348
20:00+18ссв2287100 5.6 101131
26 июля, пн
пн2623:00+15ссв3395100 4.0 101259
02:00+14св2396100 6.7 101259
05:00+14св2497100 4.5 101376
08:00+16ссв239695 9.4 1013108
11:00+20ю12825 1.4 1013264
14:00+22ю12705 5.1 1014867
17:00+22ююз11698 2.9 1013748
20:00+19ссв218658 4.2 101317
27 июля, вт
вт2723:00+15св3497100 12.8 101696
02:00+14св349898 21.6 1017109
05:00+13св239614 0.6 101751
08:00+15св2395100 1.9 101791
11:00+19ююз118598 2.4 1017286
14:00+20ю2385100 8.6 1017550
17:00+20ююв1186100 6.1 1016112
20:00+18св118878 8.4 101515
28 июля, ср
ср2823:00+15св2295100 2.6 101638
02:00+15ссв2295100 4.2 101637
05:00+14св239729 2.3 101555
08:00+17ссв229470 2.7 101579
11:00+20ю117844 1.8 1015661
14:00+23ю22648 2.6 10141043
17:00+24ююз115713 0.6 10141393
20:00+20юз00841 0.8 101411
29 июля, чт
чт2923:00+16св22930 0.7 101630
02:00+15св329445 0.8 101640
05:00+15св229258 0.1 101639
08:00+17св229065 0.3 101665
11:00+22юз116835 0.1 1015536
14:00+26ююз22551 0.3 10141440
17:00+26ююз2250100 0.1 10131680
20:00+22ююз118141 0.1 101311